This is the latest recevied weather packets stored in our database for station/object NO9B. If no packets are shown the sender has not sent any weather packets the latest 10 day(s).
| Time | Temp. | Humidity | Pressure | Rain* | Wind** | Luminosity | Snow |
|---|---|---|---|---|---|---|---|
| 1788481801 | 23.89° C | 86% | 1014.6 hPa | 0 mm | - | 0 W/m² | - |
| 1788481498 | 24.44° C | 87% | 1014.7 hPa | 0 mm | - | 1 W/m² | - |
| 1788481197 | 24.44° C | 86% | 1014.5 hPa | 0 mm | - | 3 W/m² | - |
| 1788480893 | 24.44° C | 88% | 1014.8 hPa | 0 mm | - | 4 W/m² | - |
| 1788480593 | 24.44° C | 85% | 1014.7 hPa | 0 mm | - | 5 W/m² | - |
| 1788480292 | 24.44° C | 84% | 1014.9 hPa | 0 mm | - | 6 W/m² | - |
| 1788479988 | 24.44° C | 84% | 1014.9 hPa | 0 mm | - | 11 W/m² | - |
| 1788479684 | 25° C | 84% | 1014.7 hPa | 0 mm | - | 14 W/m² | - |
| 1788479384 | 25° C | 84% | 1014.6 hPa | 0 mm | - | 14 W/m² | - |
| 1788479079 | 25° C | 85% | 1014.8 hPa | 0 mm | - | 14 W/m² | - |
| 1788478776 | 25° C | 84% | 1014.8 hPa | 0 mm | - | 14 W/m² | - |
| 1788478472 | 25° C | 85% | 1014.7 hPa | 0 mm | - | 16 W/m² | - |
| 1788478174 | 25° C | 85% | 1014.8 hPa | 0 mm | - | 19 W/m² | - |
| 1788477867 | 25° C | 85% | 1014.8 hPa | 0 mm | - | 18 W/m² | - |
| 1788477566 | 25° C | 84% | 1014.5 hPa | 0 mm | - | 16 W/m² | - |
| 1788477262 | 25.56° C | 84% | 1014.6 hPa | 0 mm | - | 15 W/m² | - |
| 1788476956 | 25.56° C | 82% | 1014.6 hPa | 0 mm | - | 14 W/m² | - |
| 1788476652 | 25.56° C | 82% | 1014.5 hPa | 0 mm | - | 15 W/m² | - |
| 1788476348 | 25.56° C | 82% | 1014.7 hPa | 0 mm | - | 18 W/m² | - |
| 1788476044 | 26.11° C | 80% | 1014.7 hPa | 0 mm | - | 25 W/m² | - |
| 1788475740 | 26.11° C | 80% | 1014.6 hPa | 0 mm | - | 30 W/m² | - |
| 1788475435 | 26.11° C | 82% | 1014.5 hPa | 0 mm | - | 44 W/m² | - |
| 1788475131 | 25.56° C | 82% | 1014.7 hPa | 0 mm | - | 68 W/m² | - |
| 1788474830 | 26.11° C | 82% | 1014.6 hPa | 0 mm | - | 51 W/m² | - |
| 1788474525 | 26.11° C | 82% | 1014.4 hPa | 0 mm | - | 31 W/m² | - |
* Rain latest hour (hover to see other rain measurements)
** Current wind speed in m/s (hover to see current wind gust speed)